[ hide orbit diagram ]
For accurate long-term ephemerides, please instead use our Horizons system.This orbit viewer was implemented using two-body methods, and hence should not be used for determining accurate long-term trajectories (over several years or decades) or planetary encounter circumstances.
Orbital Elements at Epoch 2459200.5 (2020-Dec-17.0) TDB
Reference: JPL 18 (heliocentric ecliptic J2000)
Element | Value | Uncertainty (1-sigma) | Units |
e | .05670863800532238 | 4.2675e-08 | |
a | 2.268063585956456 | 6.687e-09 | au |
q | 2.139444789087398 | 9.7065e-08 | au |
i | 1.772830421925908 | 4.0275e-06 | deg |
node | 293.0667872398781 | 0.00012838 | deg |
peri | 214.6500474097099 | 0.00013287 | deg |
M | 76.27904681506074 | 3.2786e-05 | deg |
tp | 2458936.147134402386 (2020-Mar-27.64713440) | 0.00011374 | TDB |
period | 1247.61694841146 3.42 | 5.5176e-06 1.511e-08 | d yr |
n | .2885501038266379 | 1.2761e-09 | deg/d |
Q | 2.396682382825514 | 7.0662e-09 | au |
|
| | Orbit Determination Parameters
Additional Information
|
[ hide covariance matrix ]
Orbital Elements at Epoch 2456867.5 (2014-Jul-29.0) TDB
Reference: JPL 18 (heliocentric ecliptic J2000)
Element | Value | Uncertainty (1-sigma) | Units |
e | .05656948971636287 | 4.2836e-08 | |
q | 2.140285696948349 | 9.7458e-08 | au |
tp | 2456441.701610227782 (2013-May-29.20161023) | 0.00011531 | TDB |
node | 293.1659217102679 | 0.00012833 | deg |
peri | 215.0304179449282 | 0.00013281 | deg |
i | 1.772932794106433 | 4.0288e-06 | deg |
|
| | Orbit Determination Parameters
Additional Information
|
Orbit Covariance (6×6)
|
|
e |
q |
tp |
node |
peri |
i |
e |
1.834927648369544E-15 |
-4.165905882987537E-15 |
9.558884444133146E-13 |
2.20719769717628E-15 |
3.232032238105614E-13 |
-2.65073077862361E-16 |
q |
-4.165905882987537E-15 |
9.49801653184787E-15 |
-2.31558046030632E-12 |
-5.671220983900152E-15 |
-7.733465238036984E-13 |
6.107180430574019E-16 |
tp |
9.558884444133146E-13 |
-2.31558046030632E-12 |
1.329638778432011E-8 |
3.249540152647114E-12 |
3.955942400397316E-9 |
-1.040729395772863E-13 |
node |
2.20719769717628E-15 |
-5.671220983900152E-15 |
3.249540152647114E-12 |
1.646941206472132E-8 |
-1.646000497587798E-8 |
1.342243299765186E-10 |
peri |
3.232032238105614E-13 |
-7.733465238036984E-13 |
3.955942400397316E-9 |
-1.646000497587798E-8 |
1.763862727790122E-8 |
-1.341993158804361E-10 |
i |
-2.65073077862361E-16 |
6.107180430574019E-16 |
-1.040729395772863E-13 |
1.342243299765186E-10 |
-1.341993158804361E-10 |
1.62313404338883E-11 |
|
Physical Parameter Table
Parameter |
Symbol |
Value |
Units |
Sigma |
Reference |
Notes |
absolute magnitude |
H |
15.58 |
|
n/a |
E2021B10 |
|
diameter |
diameter |
2.486 |
km |
0.631 |
urn:nasa:pds:neowise_diameters_albedos::2.0[mainbelt] (http://adsabs.harvard.edu/abs/2011ApJ...741...68M) |
|
geometric albedo |
albedo |
0.377 |
|
0.154 |
urn:nasa:pds:neowise_diameters_albedos::2.0[mainbelt] (http://adsabs.harvard.edu/abs/2011ApJ...741...68M) |
|
|
14905 (1993 FV27) Discovered 1993-Mar-21 by UESAC at La Silla |
Reference: 20000523/Numbers.arc | Last Updated: 2004-04-19 |
|
|